#timestamp,LO_Frequency,Hit,StdDev 
1650524415.9,286047000.4,N
1650524435.7,286047000.1,N
1650524455.5,286047002.3,N
1650524475.4,286047003.8,Y
1650524495.2,286047002.5,P
1650524515.1,286047000.6,N
1650524516.0,286047000.6,N
1650524535.8,286047000.0,N
1650524555.6,286047000.7,N
1650524575.5,286047000.4,N
1650524595.3,286046999.7,N
1650524615.1,286047000.9,N
1650524635.9,286047001.9,N
1650524655.7,286047002.2,N
1650524675.6,286047000.0,N
1650524695.4,286047002.7,Y
1650524715.2,286046998.6,P
1650524735.1,286047001.0,N
1650524736.0,286047001.0,N
1650524755.8,286046999.8,N
1650524775.7,286047000.3,N
1650524795.5,286047000.9,N
1650524815.3,286047000.9,N
1650524835.2,286047001.1,N
1650524855.0,286047002.2,N
1650524855.9,286047002.2,N
1650524875.8,286047002.6,N
1650524895.6,286047001.4,N
1650524915.4,286047004.2,Y
1650524935.3,286047000.8,P
1650524955.1,286047000.3,N
1650524975.9,286046998.9,P
1650524995.7,286046999.0,N
1650525015.5,286047001.0,N
1650525035.4,286047000.0,N
1650525055.2,286047000.8,N
1650525075.0,286047000.2,N
1650525075.9,286047000.2,N
1650525095.8,286047002.2,Y
1650525115.6,286047002.5,P
1650525135.5,286046999.8,N
1650525155.3,286046998.5,N
1650525175.1,286047002.8,N
1650525195.9,286047001.1,N
1650525215.7,286047002.1,N
1650525235.6,286047001.9,N
1650525255.4,286047002.0,N
1650525275.2,286047000.2,N
1650525295.1,286046999.1,N
1650525296.0,286046999.1,N
1650525315.8,286046997.3,N
1650525335.7,286046996.8,N
1650525355.5,286046996.7,N
1650525375.3,286046998.5,N
1650525395.2,286046998.1,N
1650525415.9,286046998.2,N
1650525435.7,286046998.1,N
1650525455.6,286046999.3,N
1650525475.4,286046998.1,N
1650525495.3,286046997.1,N
1650525515.1,286046998.4,N
1650525516.0,286046998.4,N
1650525535.8,286046998.2,N
1650525555.7,286046999.3,N
1650525575.5,286046998.6,N
1650525595.3,286046998.3,N
1650525615.2,286046996.7,N
1650525635.0,286046997.0,N
1650525635.9,286046997.0,N
1650525655.8,286046996.7,N
1650525675.6,286046998.6,N
1650525695.4,286046998.5,N
1650525715.3,286047000.0,N
1650525735.1,286047000.4,N
1650525755.8,286047000.7,N
1650525775.7,286047002.7,N
1650525795.5,286047002.2,N
1650525815.4,286047002.1,N
1650525835.2,286047002.4,N
1650525855.0,286047002.7,N
1650525855.9,286047002.7,N
1650525875.8,286047002.5,N
1650525895.6,286047001.0,N
1650525915.4,286046999.8,N
1650525935.3,286047001.5,N
1650525955.1,286047001.9,N
1650525975.9,286047001.2,N
1650525995.7,286046999.7,N
1650526015.5,286047000.4,N
1650526035.4,286046999.0,N
1650526055.2,286047000.2,N
1650526075.0,286047002.2,N
1650526075.9,286047002.2,N
1650526095.8,286047002.0,N
1650526115.6,286047001.8,N
1650526135.5,286047000.3,N
1650526155.3,286047000.3,N
1650526175.1,286047000.4,N
1650526195.9,286046999.9,N
1650526215.7,286046998.4,N
1650526235.6,286046996.9,N
1650526255.4,286046998.8,N
1650526275.2,286046998.6,N
1650526295.1,286046997.1,N
1650526296.0,286046997.1,N
1650526315.8,286046997.5,N
1650526335.6,286046999.3,N
1650526355.5,286046999.5,N
1650526375.3,286047000.3,N
1650526395.2,286046999.6,N
1650526415.9,286046996.5,N
1650526435.7,286047001.2,N
1650526455.6,286047002.0,N
1650526475.4,286047002.3,N
1650526495.2,286046999.8,N
1650526515.1,286047001.5,N
1650526516.0,286047001.5,N
1650526535.8,286047000.2,N
1650526555.7,286046998.5,N
1650526575.5,286046998.9,N
1650526595.3,286047000.6,N
1650526615.2,286047002.7,N
1650526635.0,286047001.9,N
1650526635.9,286047001.9,N
1650526655.8,286047000.5,N
1650526675.6,286047001.0,N
1650526695.4,286046998.9,N
1650526715.3,286046997.2,N
1650526735.1,286046996.7,N
1650526755.8,286046997.2,N
1650526775.7,286046997.0,N
1650526795.5,286046999.0,N
1650526815.4,286046997.1,N
1650526835.2,286046998.5,N
1650526855.0,286046999.4,N
1650526855.9,286046999.4,N
1650526875.8,286046998.9,N
1650526895.6,286046999.7,N
1650526915.5,286047002.7,N
1650526935.3,286046999.8,N
1650526955.1,286047002.6,N
1650526975.9,286047001.2,N
1650526995.7,286046998.6,N
1650527015.5,286046999.0,N
1650527035.4,286046999.3,N
1650527055.2,286047000.4,N
1650527075.1,286047000.2,N
1650527076.0,286047000.2,N
1650527095.8,286047000.6,N
1650527115.7,286046999.3,N
1650527135.5,286046999.4,N
1650527155.3,286046998.2,N
1650527175.2,286047000.1,N
1650527195.0,286047001.6,N
1650527195.9,286047001.6,N
1650527215.7,286047001.8,N
1650527235.6,286046999.9,N
1650527255.4,286047001.8,N
1650527275.3,286047002.2,N
1650527295.1,286047000.2,N
1650527315.8,286047000.4,N
1650527335.7,286046998.1,N
1650527355.5,286046998.6,N
1650527375.4,286046998.6,N
1650527395.2,286046998.7,N
1650527415.0,286047001.2,N
1650527415.9,286047001.2,N
1650527435.8,286046998.2,N
1650527455.6,286046998.7,N
1650527475.4,286046999.2,N
1650527495.3,286046999.3,N
1650527515.2,286046997.1,N
1650527535.0,286046997.9,N
1650527535.9,286046997.9,N
1650527555.8,286046995.6,Y
1650527575.6,286046997.2,P
1650527595.4,286046996.5,N
1650527615.3,286046997.8,N
1650527635.1,286046997.8,N
1650527655.8,286046996.9,N
1650527675.7,286046999.2,N
1650527695.5,286046999.1,N
1650527715.4,286046997.1,N
1650527735.2,286046995.2,Y
1650527755.0,286046996.7,P
1650527755.9,286046996.7,P
1650527775.8,286046999.4,N
1650527795.6,286046999.4,N
1650527815.4,286046997.9,N
1650527835.3,286046997.3,N
1650527855.1,286046994.9,Y
1650527875.9,286046999.5,P
1650527895.7,286046998.8,N
1650527915.5,286046998.4,N
1650527935.4,286047001.1,N
1650527955.2,286046998.5,N
1650527975.1,286046998.5,N
1650527976.0,286046998.5,N
1650527995.8,286047000.9,N
